Hourly Data Report for June 01, 2004

TORONTO CITY
ONTARIO

43°40'00.000" N
79°24'00.000" W
112.50 m
6158355
71508
XTO

Download Data

Hourly Data (June 2004)
Hourly Data Report for June 1, 2004
TIME
LST
Temp Definition
°C
Dew Point Definition
°C
Rel Hum Definition
%
Precip. Amount Definition
mm

Wind Dir Definition
10's deg

Wind Spd Definition
km/h
Visibility Definition
km
Stn Press Definition
kPa
Hmdx Definition


Wind Chill Definition


Weather Definition


00:00 11.7 11.7 100   LegendMM LegendMM LegendMM 98.71     LegendNANA
01:00 10.9 10.9 100   LegendMM LegendMM LegendMM 98.70     LegendNANA
02:00 11.0 11.0 100   LegendMM LegendMM LegendMM 98.67     LegendNANA
03:00 10.7 10.7 100   LegendMM LegendMM LegendMM 98.68     LegendNANA
04:00 10.3 10.3 100   LegendMM LegendMM LegendMM 98.70     LegendNANA
05:00 9.6 9.6 100   LegendMM LegendMM LegendMM 98.72     LegendNANA
06:00 10.9 10.9 100   LegendMM LegendMM LegendMM 98.75     LegendNANA
07:00 13.3 13.3 100   LegendMM LegendMM LegendMM 98.76     LegendNANA
08:00 13.2 12.6 96   LegendMM LegendMM LegendMM 98.78     LegendNANA
09:00 16.6 13.5 82   LegendMM LegendMM LegendMM 98.77     LegendNANA
10:00 18.7 14.4 76   LegendMM LegendMM LegendMM 98.78     LegendNANA
11:00 20.7 14.5 68   LegendMM LegendMM LegendMM 98.78     LegendNANA
12:00 19.9 13.9 68   LegendMM LegendMM LegendMM 98.75     LegendNANA
13:00 22.0 14.5 62   LegendMM LegendMM LegendMM 98.70 26   LegendNANA
14:00 21.1 12.8 59   LegendMM LegendMM LegendMM 98.66     LegendNANA
15:00 18.8 13.0 69   LegendMM LegendMM LegendMM 98.67     LegendNANA
16:00 18.8 11.7 63   LegendMM LegendMM LegendMM 98.70     LegendNANA
17:00 17.2 12.2 72   LegendMM LegendMM LegendMM 98.81     LegendNANA
18:00 15.9 13.9 88   LegendMM LegendMM LegendMM 98.94     LegendNANA
19:00 16.0 14.3 90   LegendMM LegendMM LegendMM 98.95     LegendNANA
20:00 15.3 14.6 96   LegendMM LegendMM LegendMM 98.98     LegendNANA
21:00 15.7 14.3 91   LegendMM LegendMM LegendMM 99.01     LegendNANA
22:00 15.1 14.0 93   LegendMM LegendMM LegendMM 99.05     LegendNANA
23:00 15.1 13.9 93   LegendMM LegendMM LegendMM 99.06     LegendNANA

Notes on Data Quality.

Legend

  • E = Estimated
  • M = Missing
  • NA = Not Available*
  • [empty] = Indicates an unobserved value
Date modified: